Weather History for Plattsburgh, NY

Change the Weather History Date:

Friday, July 18, 2014

  Actual Average Record
Temperature  
Mean Temperature 65 °F 70 °F  
Max Temperature 77 °F 80 °F 95 °F (1953)
Min Temperature 52 °F 59 °F 50 °F (1958)
Cooling Degree Days 0 5  
Month to date cooling degree days 86 84  
Year to date cooling degree days 159 154  
Since 1 June cooling degree days 146 146  
Growing Degree Days 14 (Base 50)    
Moisture  
Dew Point 55 °F    
Average Humidity 72    
Maximum Humidity 97    
Minimum Humidity 46    
Precipitation  
Precipitation 0.00 in - 1.19 in (2008)
Month to date precipitation 1.91  
Year to date precipitation 16.07  
Sea Level Pressure  
Sea Level Pressure 30.17 in    
Wind  
Wind Speed 4 mph (SSE)    
Max Wind Speed 15 mph    
Max Gust Speed 17 mph    
Visibility 10 miles    
Events      
T = Trace of Precipitation, MM = Missing Value Source: NWS Daily Summary

Daily Weather History Graph

Daily Weather History Graph

Search for Another Location

Airport:

Trip Planner

Search our weather history database for the weather conditions in past years. The results will help you decide how hot, cold, wet, or windy it might be!

Date:

Astronomy

Jul. 18, 2014 Rise Set
Actual Time 5:25 AM EDT 8:34 PM EDT
Civil Twilight 4:50 AM EDT 9:09 PM EDT
Nautical Twilight 4:04 AM EDT 9:54 PM EDT
Astronomical Twilight 3:09 AM EDT 10:49 PM EDT
Moon No Moon Rise 12:59 PM EDT (7/18)
Length of Visible Light 16h 19m
Length of Day
15h 08m
Waning Gibbous, 55% of the Moon is Illuminated
Jul 18
Waning Gibbous
Jul 18
Last Quarter
Jul 26
New
Aug 3
First Quarter
Aug 10
Full

Hourly Weather History & Observations

Time (EDT) Temp. Dew Point Humidity Pressure Visibility Wind Dir Wind Speed Gust Speed Precip Events Conditions
12:53 AM 62.1 °F 51.1 °F 67% 30.08 in 10.0 mi Variable 4.6 mph - N/A   Partly Cloudy
2:53 AM 60.1 °F 51.1 °F 72% 30.10 in 10.0 mi Variable 3.5 mph - N/A   Partly Cloudy
3:53 AM 54.0 °F 51.1 °F 90% 30.11 in 10.0 mi Calm Calm - N/A   Clear
4:53 AM 55.0 °F 50.0 °F 83% 30.13 in 10.0 mi Calm Calm - N/A   Clear
5:53 AM 55.0 °F 51.1 °F 86% 30.15 in 10.0 mi WSW 3.5 mph - N/A   Mostly Cloudy
6:53 AM 60.1 °F 54.0 °F 80% 30.17 in 10.0 mi Calm Calm - N/A   Partly Cloudy
7:53 AM 63.0 °F 53.1 °F 70% 30.19 in 10.0 mi SSE 3.5 mph - N/A   Clear
8:53 AM 69.1 °F 55.0 °F 61% 30.20 in 10.0 mi South 4.6 mph - N/A   Clear
10:53 AM 71.1 °F 59.0 °F 66% 30.19 in 10.0 mi ESE 10.4 mph - N/A   Clear
11:53 AM 69.1 °F 59.0 °F 70% 30.19 in 10.0 mi SSE 11.5 mph - N/A   Mostly Cloudy
12:53 PM 72.0 °F 57.9 °F 61% 30.19 in 10.0 mi SE 10.4 mph - N/A   Mostly Cloudy
1:53 PM 73.0 °F 55.9 °F 55% 30.18 in 10.0 mi SE 9.2 mph - N/A   Overcast
2:53 PM 73.9 °F 55.0 °F 52% 30.18 in 10.0 mi South 8.1 mph - N/A   Partly Cloudy
3:53 PM 75.9 °F 55.0 °F 48% 30.17 in 10.0 mi SE 5.8 mph - N/A   Mostly Cloudy
4:53 PM 75.9 °F 54.0 °F 46% 30.18 in 10.0 mi SE 5.8 mph - N/A   Partly Cloudy
5:53 PM 75.9 °F 54.0 °F 46% 30.17 in 10.0 mi SE 4.6 mph - N/A   Clear
6:53 PM 73.9 °F 59.0 °F 59% 30.19 in 10.0 mi Calm Calm - N/A   Clear
7:53 PM 69.1 °F 59.0 °F 70% 30.19 in 10.0 mi Calm Calm - N/A   Clear
8:53 PM 64.9 °F 60.1 °F 84% 30.20 in 10.0 mi Calm Calm - N/A   Clear
9:53 PM 62.1 °F 60.1 °F 93% 30.22 in 10.0 mi Calm Calm - N/A   Clear
10:53 PM 60.1 °F 59.0 °F 96% 30.22 in 10.0 mi Calm Calm - N/A   Clear
11:53 PM 57.0 °F 55.9 °F 96% 30.23 in 10.0 mi Calm Calm - N/A   Clear